Вернуться в каталог

TIANHUI 5C

АктивенНаукаSSO
NORAD 60211·PAYLOAD·🇨🇳 China

Запущен Jul 4, 2024 с Taiyuan Satellite Launch Center

Loading…

Ближайшие Пролёты (ближайшие 24 часа)

TLE

СвежийSource: Space-Track

Эпоха: Sep 14, 2026, 08:37 UTC

1 60211U 24126A   26257.35964617  .00000262  00000-0  34783-4 0  9997
2 60211  97.8215 263.6560 0001557  89.4530 270.6865 14.87579907119146

Отслеживайте TIANHUI 5C в реальном времени с AllMySat

Download on the App Store